EW6611 Weather Reports


Display with metric or nautical units.
time (UTC)temp
F
wind
direction
speed
MPH
gust
MPH
rain 1hr
in
rain 24hr
in
rain mn
in
humidity
%
barometer
mb
20181216014104 42 200 5.0 10.0 0.00 0.32 0.00 92 1003.0
20181216013605 42 207 5.0 7.0 0.00 0.32 0.00 92 1003.0
20181216013105 42 205 6.0 8.0 0.00 0.32 0.00 92 1003.0
20181216012605 42 208 7.0 10.0 0.00 0.32 0.00 93 1003.0
20181216012105 41 207 8.0 14.0 0.00 0.32 0.00 93 1003.0
20181216011605 41 203 7.0 13.0 0.00 0.32 0.00 93 1003.0
20181216011105 41 205 8.0 10.0 0.00 0.32 0.00 94 1003.0
20181216010605 41 208 7.0 13.0 0.00 0.32 0.00 94 1002.9
20181216010105 41 201 7.0 12.0 0.00 0.32 0.00 94 1002.9
20181216005605 41 198 7.0 10.0 0.00 0.32 0.00 94 1002.7
20181216005105 41 201 7.0 12.0 0.00 0.32 0.00 94 1002.7
20181216004604 41 205 7.0 10.0 0.00 0.32 0.00 94 1002.7
20181216004105 41 203 7.0 12.0 0.00 0.32 0.00 94 1003.0
20181216003605 41 196 9.0 12.0 0.00 0.32 0.00 94 1003.1
20181216003105 41 197 7.0 12.0 0.00 0.32 0.00 94 1003.1
20181216002604 41 195 6.0 12.0 0.00 0.32 0.00 94 1003.0
20181216002107 41 204 8.0 12.0 0.00 0.32 0.00 94 1003.0
20181216001104 41 192 5.0 8.0 0.00 0.32 0.00 94 1002.5
20181216000605 41 191 6.0 9.0 0.00 0.32 0.00 94 1002.4
20181216000105 40 174 2.0 7.0 0.00 0.32 0.00 94 1002.4
20181215235604 40 182 3.0 8.0 0.00 0.32 0.32 94 1002.4
20181215235104 40 187 3.0 7.0 0.00 0.32 0.32 94 1002.4
20181215234604 40 188 5.0 10.0 0.00 0.32 0.32 94 1002.4
20181215234104 40 190 4.0 12.0 0.00 0.32 0.32 94 1002.4
20181215233604 40 182 5.0 12.0 0.00 0.32 0.32 94 1002.4
20181215233106 40 173 4.0 12.0 0.00 0.32 0.32 94 1002.3
20181215232604 40 168 7.0 13.0 0.00 0.32 0.32 94 1002.1
20181215232104 40 178 6.0 14.0 0.00 0.32 0.32 94 1002.1
20181215231604 40 168 7.0 13.0 0.00 0.32 0.32 94 1002.1
20181215231104 40 160 10.0 16.0 0.00 0.32 0.32 94 1002.1
20181215230604 40 157 9.0 13.0 0.00 0.32 0.32 94 1002.3
20181215230106 40 158 7.0 13.0 0.00 0.32 0.32 94 1002.3
20181215225605 40 167 7.0 12.0 0.00 0.32 0.32 94 1002.7
20181215225104 40 157 9.0 14.0 0.00 0.32 0.32 94 1002.7
20181215224604 40 166 9.0 17.0 0.00 0.32 0.32 94 1002.7
20181215224104 40 165 10.0 18.0 0.00 0.32 0.32 94 1002.7
20181215223604 39 163 14.0 20.0 0.00 0.32 0.32 94 1002.7
20181215223105 39 165 10.0 18.0 0.00 0.32 0.32 94 1002.7
20181215222604 39 161 14.0 20.0 0.00 0.32 0.32 94 1002.7
20181215222105 39 161 12.0 20.0 0.00 0.32 0.32 93 1002.7
20181215221604 39 176 13.0 18.0 0.00 0.32 0.32 93 1002.7
20181215221105 39 173 13.0 20.0 0.00 0.32 0.32 93 1002.7
20181215220604 39 167 10.0 18.0 0.00 0.32 0.32 93 1002.7
20181215220105 39 165 11.0 22.0 0.00 0.32 0.32 93 1002.7
20181215215604 39 176 12.0 20.0 0.00 0.32 0.32 93 1002.7
20181215215104 39 170 10.0 17.0 0.00 0.32 0.32 93 1002.7
20181215214604 39 162 13.0 20.0 0.00 0.32 0.32 93 1002.7
20181215214104 39 163 14.0 21.0 0.00 0.32 0.32 93 1002.7
20181215213605 39 160 14.0 20.0 0.00 0.32 0.32 93 1003.1
20181215213104 38 163 13.0 22.0 0.00 0.32 0.32 93 1003.1
20181215212605 38 169 14.0 22.0 0.00 0.32 0.32 93 1003.1
20181215212104 38 168 16.0 21.0 0.00 0.32 0.32 93 1003.1
20181215211605 38 164 14.0 23.0 0.00 0.32 0.32 93 1003.1
20181215211104 38 171 13.0 22.0 0.01 0.32 0.32 93 1003.2
20181215210605 38 171 14.0 26.0 0.02 0.32 0.32 94 1003.2
20181215210104 38 165 13.0 21.0 0.03 0.32 0.32 93 1003.2
20181215205604 38 163 13.0 18.0 0.04 0.32 0.32 93 1003.0
20181215205104 38 149 15.0 22.0 0.05 0.32 0.32 93 1003.0
20181215204604 37 161 13.0 21.0 0.06 0.32 0.32 93 1003.2
20181215204104 37 160 14.0 23.0 0.07 0.32 0.32 93 1003.2
20181215203605 37 160 15.0 25.0 0.08 0.32 0.32 93 1003.2
20181215203104 37 161 13.0 30.0 0.08 0.32 0.32 93 1003.2
20181215202604 37 145 13.0 21.0 0.09 0.32 0.32 93 1003.2
20181215202104 37 154 17.0 29.0 0.10 0.32 0.32 93 1003.5
20181215201605 37 148 15.0 26.0 0.11 0.32 0.32 93 1003.5
20181215201104 37 145 12.0 23.0 0.12 0.31 0.31 93 1003.5
20181215200604 37 157 18.0 26.0 0.13 0.31 0.31 93 1003.5
20181215200105 37 152 14.0 25.0 0.12 0.29 0.29 93 1003.5
20181215195604 37 154 15.0 24.0 0.13 0.28 0.28 93 1003.5
20181215195104 37 142 14.0 25.0 0.13 0.28 0.28 93 1003.6
20181215194604 37 147 14.0 22.0 0.12 0.26 0.26 93 1003.7
20181215194105 37 147 16.0 21.0 0.12 0.25 0.25 93 1003.8
20181215193604 37 141 16.0 24.0 0.12 0.24 0.24 93 1003.8
20181215193105 37 141 14.0 24.0 0.13 0.24 0.24 93 1004.1
20181215192605 37 140 17.0 25.0 0.12 0.23 0.23 93 1004.1
20181215192104 37 145 15.0 22.0 0.12 0.22 0.22 93 1004.1
20181215191605 37 162 17.0 24.0 0.13 0.21 0.21 93 1004.1
20181215191105 37 149 13.0 25.0 0.11 0.20 0.20 93 1004.1
20181215190604 37 147 16.0 26.0 0.10 0.18 0.18 93 1004.1
20181215190104 37 147 15.0 26.0 0.10 0.17 0.17 93 1004.1
20181215185605 37 136 17.0 28.0 0.09 0.16 0.16 93 1004.8
20181215185104 37 152 14.0 21.0 0.08 0.15 0.15 93 1004.8
20181215184604 36 147 15.0 24.0 0.08 0.14 0.14 93 1004.8
20181215184105 36 150 12.0 26.0 0.08 0.13 0.13 93 1004.8
20181215183605 36 145 16.0 24.0 0.07 0.13 0.13 93 1004.8
20181215183104 36 137 14.0 25.0 0.07 0.12 0.12 92 1004.8
20181215182604 36 140 16.0 24.0 0.07 0.11 0.11 92 1005.0
20181215182105 36 139 16.0 26.0 0.06 0.10 0.10 92 1004.9
20181215181605 36 146 15.0 28.0 0.05 0.09 0.09 92 1005.6
20181215181105 36 133 13.0 23.0 0.06 0.09 0.09 92 1005.6
20181215180604 36 129 15.0 26.0 0.06 0.08 0.08 92 1005.6
20181215180105 36 139 10.0 28.0 0.05 0.07 0.07 91 1006.0
20181215175604 36 136 15.0 26.0 0.05 0.07 0.07 91 1006.0
20181215175105 36 150 15.0 26.0 0.06 0.07 0.07 91 1006.0
20181215174605 36 134 15.0 25.0 0.05 0.06 0.06 91 1006.0
20181215174104 36 142 13.0 25.0 0.05 0.06 0.06 91 1006.3
20181215173604 36 136 14.0 26.0 0.05 0.06 0.06 91 1006.3
20181215173104 36 142 14.0 21.0 0.05 0.05 0.05 91 1006.4
20181215172604 36 131 16.0 31.0 0.04 0.04 0.04 91 1006.5
20181215172104 36 133 15.0 22.0 0.04 0.04 0.04 90 1007.5
20181215171604 36 127 12.0 28.0 0.04 0.04 0.04 90 1007.5
20181215171104 36 137 13.0 24.0 0.03 0.03 0.03 90 1007.5
20181215170604 36 145 16.0 26.0 0.02 0.02 0.02 89 1007.5
20181215170105 36 136 14.0 28.0 0.02 0.02 0.02 89 1007.5
20181215165605 36 130 16.0 26.0 0.02 0.02 0.02 89 1007.7
20181215165104 36 134 16.0 32.0 0.02 0.02 0.02 88 1008.3
20181215164604 36 131 14.0 23.0 0.02 0.02 0.02 87 1008.3
20181215164104 36 134 16.0 24.0 0.01 0.01 0.01 87 1008.3
20181215163605 36 137 16.0 26.0 0.01 0.01 0.01 86 1008.3
20181215163104 36 124 17.0 24.0 0.00 0.00 0.00 84 1008.5
20181215162604 37 131 15.0 26.0 0.00 0.00 0.00 84 1008.5
20181215162104 37 135 17.0 30.0 0.00 0.00 0.00 82 1009.0
20181215161604 37 139 13.0 28.0 0.00 0.00 0.00 82 1009.0
20181215161105 37 144 16.0 26.0 0.00 0.00 0.00 82 1009.0
20181215160605 36 137 16.0 26.0 0.00 0.00 0.00 82 1009.0
20181215160105 36 139 12.0 26.0 0.00 0.00 0.00 82 1009.0
20181215155604 36 132 13.0 23.0 0.00 0.00 0.00 82 1009.2
20181215155105 36 137 16.0 26.0 0.00 0.00 0.00 82 1009.2
20181215154604 36 137 13.0 25.0 0.00 0.00 0.00 82 1009.4
20181215154104 36 136 15.0 29.0 0.00 0.00 0.00 81 1009.6
20181215153604 36 143 17.0 25.0 0.00 0.00 0.00 81 1009.6
20181215153104 36 142 17.0 28.0 0.00 0.00 0.00 81 1010.3
20181215152604 36 144 17.0 26.0 0.00 0.00 0.00 81 1010.3
20181215152104 36 138 16.0 24.0 0.00 0.00 0.00 81 1010.3
20181215151604 36 140 15.0 25.0 0.00 0.00 0.00 81 1010.3
20181215151104 36 148 14.0 26.0 0.00 0.00 0.00 81 1010.9
20181215150604 36 138 16.0 30.0 0.00 0.00 0.00 81 1010.9
20181215150105 36 134 13.0 23.0 0.00 0.00 0.00 82 1010.9
20181215145604 36 137 15.0 25.0 0.00 0.00 0.00 82 1010.9
20181215145104 36 145 14.0 30.0 0.00 0.00 0.00 81 1010.9
20181215144604 36 144 17.0 38.0 0.00 0.00 0.00 82 1011.7
20181215144104 36 126 18.0 29.0 0.00 0.00 0.00 82 1011.7
20181215143604 36 136 16.0 23.0 0.00 0.00 0.00 82 1011.7
20181215143104 36 135 11.0 21.0 0.00 0.00 0.00 82 1011.7
20181215142604 36 143 13.0 22.0 0.00 0.00 0.00 82 1011.7
20181215142104 36 134 13.0 24.0 0.00 0.00 0.00 82 1011.9
20181215141604 36 140 14.0 28.0 0.00 0.00 0.00 81 1012.7
20181215141104 36 139 14.0 24.0 0.00 0.00 0.00 82 1012.7
20181215140604 36 132 10.0 25.0 0.00 0.00 0.00 81 1012.7
20181215140105 36 142 14.0 25.0 0.00 0.00 0.00 80 1012.7
20181215135604 36 148 13.0 23.0 0.00 0.00 0.00 81 1012.7
20181215135104 36 144 11.0 26.0 0.00 0.00 0.00 80 1012.7
20181215134604 36 140 16.0 25.0 0.00 0.00 0.00 80 1012.8
20181215134105 36 138 13.0 25.0 0.00 0.00 0.00 80 1013.4
20181215133604 36 148 17.0 25.0 0.00 0.00 0.00 79 1013.4
20181215133104 36 145 14.0 26.0 0.00 0.00 0.00 79 1013.4
20181215132604 36 145 12.0 21.0 0.00 0.00 0.00 79 1013.4
20181215132105 36 151 14.0 23.0 0.00 0.00 0.00 79 1013.4
20181215131604 36 156 11.0 26.0 0.00 0.00 0.00 79 1013.4
20181215131104 36 150 14.0 23.0 0.00 0.00 0.00 79 1013.6
20181215130605 36 140 14.0 33.0 0.00 0.00 0.00 79 1013.6
20181215130105 36 149 13.0 26.0 0.00 0.00 0.00 79 1013.8
20181215125605 36 139 12.0 21.0 0.00 0.00 0.00 79 1013.8
20181215125105 36 127 17.0 25.0 0.00 0.00 0.00 78 1015.1
20181215124605 36 139 17.0 25.0 0.00 0.00 0.00 78 1015.1
20181215124105 36 129 12.0 22.0 0.00 0.00 0.00 79 1015.1
20181215123604 36 149 12.0 20.0 0.00 0.00 0.00 79 1015.1
20181215123104 36 146 18.0 31.0 0.00 0.00 0.00 77 1015.1
20181215122604 36 146 14.0 28.0 0.00 0.00 0.00 78 1015.1
20181215122104 36 151 13.0 25.0 0.00 0.00 0.00 78 1015.1
20181215121605 36 142 11.0 20.0 0.00 0.00 0.00 79 1015.4
20181215121104 36 142 14.0 24.0 0.00 0.00 0.00 78 1015.4
20181215120604 36 136 12.0 23.0 0.00 0.00 0.00 79 1015.4
20181215120105 36 146 16.0 24.0 0.00 0.00 0.00 77 1015.6
20181215115604 36 143 14.0 28.0 0.00 0.00 0.00 77 1015.6
20181215115104 36 136 12.0 24.0 0.00 0.00 0.00 77 1016.7
20181215114604 36 128 15.0 28.0 0.00 0.00 0.00 77 1016.7
20181215114104 36 140 14.0 23.0 0.00 0.00 0.00 77 1016.7
20181215113604 36 139 16.0 23.0 0.00 0.00 0.00 76 1016.7
20181215113105 36 156 12.0 23.0 0.00 0.00 0.00 77 1016.7
20181215112604 36 157 13.0 25.0 0.00 0.00 0.00 77 1016.7
20181215112104 36 142 13.0 18.0 0.00 0.00 0.00 78 1017.3
20181215111604 35 158 10.0 20.0 0.00 0.00 0.00 78 1017.3
20181215111104 35 141 10.0 16.0 0.00 0.00 0.00 79 1017.3
20181215110604 35 145 11.0 17.0 0.00 0.00 0.00 79 1017.3
20181215110104 35 138 10.0 18.0 0.00 0.00 0.00 79 1017.3
20181215105605 35 155 11.0 20.0 0.00 0.00 0.00 79 1017.4
20181215105104 35 151 13.0 22.0 0.00 0.00 0.00 79 1018.0
20181215104604 35 136 8.0 20.0 0.00 0.00 0.00 79 1018.0
20181215104104 35 149 13.0 20.0 0.00 0.00 0.00 78 1018.0
20181215103604 35 145 11.0 20.0 0.00 0.00 0.00 79 1018.0
20181215103104 34 147 12.0 20.0 0.00 0.00 0.00 79 1018.3
20181215102604 34 155 9.0 18.0 0.00 0.00 0.00 79 1018.3
20181215102104 35 145 11.0 16.0 0.00 0.00 0.00 79 1018.3
20181215101605 35 145 9.0 17.0 0.00 0.00 0.00 79 1018.3
20181215101104 35 153 10.0 15.0 0.00 0.00 0.00 79 1018.2
20181215100604 35 161 9.0 20.0 0.00 0.00 0.00 78 1018.3
20181215100105 34 145 12.0 22.0 0.00 0.00 0.00 78 1018.3
20181215095605 34 151 14.0 25.0 0.00 0.00 0.00 78 1018.6
20181215095104 34 140 12.0 20.0 0.00 0.00 0.00 78 1018.6
20181215094604 34 145 10.0 18.0 0.00 0.00 0.00 79 1018.9
20181215094104 34 153 10.0 18.0 0.00 0.00 0.00 79 1018.9
20181215093604 34 142 10.0 22.0 0.00 0.00 0.00 78 1018.9
20181215093104 34 137 10.0 17.0 0.00 0.00 0.00 79 1018.9
20181215092604 34 145 9.0 17.0 0.00 0.00 0.00 80 1018.9
20181215092104 34 146 11.0 20.0 0.00 0.00 0.00 79 1019.0
20181215091605 34 144 12.0 20.0 0.00 0.00 0.00 79 1019.0
20181215091105 34 138 9.0 20.0 0.00 0.00 0.00 79 1019.0
20181215090604 34 143 9.0 21.0 0.00 0.00 0.00 79 1019.2
20181215090105 34 141 8.0 14.0 0.00 0.00 0.00 79 1019.2
20181215085604 34 142 10.0 15.0 0.00 0.00 0.00 79 1019.6
20181215085104 34 145 9.0 18.0 0.00 0.00 0.00 79 1019.6
20181215084625 34 149 9.0 17.0 0.00 0.00 0.00 78 1019.6
20181215084105 34 157 10.0 18.0 0.00 0.00 0.00 79 1019.6
20181215083604 34 155 9.0 20.0 0.00 0.00 0.00 79 1019.6
20181215083104 34 154 9.0 13.0 0.00 0.00 0.00 79 1019.6
20181215082605 34 155 11.0 18.0 0.00 0.00 0.00 79 1019.6
20181215082104 34 155 9.0 13.0 0.00 0.00 0.00 79 1019.6
20181215081604 34 156 7.0 15.0 0.00 0.00 0.00 79 1019.4
20181215081104 34 148 9.0 15.0 0.00 0.00 0.00 78 1019.4
20181215080605 34 143 8.0 20.0 0.00 0.00 0.00 79 1019.4
20181215080109 34 141 10.0 16.0 0.00 0.00 0.00 79 1019.4
20181215075604 34 149 7.0 13.0 0.00 0.00 0.00 78 1020.0
20181215075104 34 154 10.0 13.0 0.00 0.00 0.00 78 1020.0
20181215074604 34 160 9.0 15.0 0.00 0.00 0.00 78 1020.0
20181215074103 34 148 9.0 16.0 0.00 0.00 0.00 78 1020.0
20181215073604 34 151 7.0 15.0 0.00 0.00 0.00 78 1020.0
20181215073105 34 147 6.0 13.0 0.00 0.00 0.00 78 1020.0
20181215072605 34 161 6.0 14.0 0.00 0.00 0.00 78 1020.0
20181215072104 34 159 10.0 16.0 0.00 0.00 0.00 77 1020.0
20181215071604 34 167 8.0 17.0 0.00 0.00 0.00 77 1020.0
20181215071104 34 161 9.0 16.0 0.00 0.00 0.00 78 1020.0
20181215070604 34 145 10.0 15.0 0.00 0.00 0.00 78 1020.0
20181215070105 34 143 10.0 16.0 0.00 0.00 0.00 79 1020.0
20181215065606 34 158 8.0 14.0 0.00 0.00 0.00 79 1020.4
20181215065105 34 147 8.0 13.0 0.00 0.00 0.00 80 1020.4
20181215064605 34 155 6.0 10.0 0.00 0.00 0.00 80 1020.4
20181215064104 34 156 6.0 10.0 0.00 0.00 0.00 79 1020.4
20181215063604 34 168 3.0 9.0 0.00 0.00 0.00 79 1020.4
20181215063105 35 182 3.0 9.0 0.00 0.00 0.00 79 1020.6
20181215062604 35 182 4.0 10.0 0.00 0.00 0.00 79 1020.7
20181215062104 35 178 3.0 12.0 0.00 0.00 0.00 79 1020.6
20181215061604 35 176 5.0 12.0 0.00 0.00 0.00 79 1020.5
20181215061104 35 174 3.0 12.0 0.00 0.00 0.00 79 1020.5
20181215060606 35 166 3.0 8.0 0.00 0.00 0.00 79 1020.5
20181215060104 35 158 5.0 9.0 0.00 0.00 0.00 79 1020.8
20181215055604 35 149 6.0 12.0 0.00 0.00 0.00 79 1020.8
20181215055104 35 168 5.0 10.0 0.00 0.00 0.00 78 1020.8
20181215054604 35 179 5.0 9.0 0.00 0.00 0.00 78 1020.8
20181215054104 36 160 5.0 12.0 0.00 0.00 0.00 78 1020.8
20181215053604 36 171 5.0 10.0 0.00 0.00 0.00 77 1020.9
20181215053104 36 158 6.0 13.0 0.00 0.00 0.00 77 1020.9
20181215052604 36 163 8.0 15.0 0.00 0.00 0.00 77 1020.9
20181215052104 36 162 7.0 12.0 0.00 0.00 0.00 77 1020.9
20181215051604 36 155 7.0 12.0 0.00 0.00 0.00 77 1021.0
20181215051104 36 155 5.0 10.0 0.00 0.00 0.00 77 1021.0
20181215050604 36 160 5.0 10.0 0.00 0.00 0.00 77 1021.0
20181215050105 36 151 5.0 12.0 0.00 0.00 0.00 77 1021.0
20181215045604 36 156 7.0 13.0 0.00 0.00 0.00 77 1021.0
20181215045105 36 146 6.0 12.0 0.00 0.00 0.00 76 1021.0
20181215044604 36 149 7.0 10.0 0.00 0.00 0.00 77 1021.0
20181215044104 36 158 5.0 12.0 0.00 0.00 0.00 77 1021.0
20181215043604 36 150 6.0 12.0 0.00 0.00 0.00 76 1021.0
20181215043104 36 147 8.0 14.0 0.00 0.00 0.00 76 1021.0
20181215042605 35 134 4.0 9.0 0.00 0.00 0.00 78 1021.0
20181215042104 35 149 8.0 15.0 0.00 0.00 0.00 79 1021.0
20181215041604 35 147 3.0 12.0 0.00 0.00 0.00 83 1021.2
20181215041105 35 151 3.0 6.0 0.00 0.00 0.00 83 1021.2
20181215040604 35 154 3.0 7.0 0.00 0.00 0.00 84 1021.2
20181215040105 35 136 5.0 7.0 0.00 0.00 0.00 84 1021.2
20181215035604 35 173 1.0 3.0 0.00 0.00 0.00 85 1021.4
20181215035105 35 145 0.0 3.0 0.00 0.00 0.00 85 1021.8
20181215034604 35 145 1.0 3.0 0.00 0.00 0.00 85 1021.8
20181215034104 35 145 1.0 3.0 0.00 0.00 0.00 85 1021.8
20181215033604 35 145 1.0 3.0 0.00 0.00 0.00 85 1021.8
20181215033104 35 145 2.0 3.0 0.00 0.00 0.00 85 1021.8
20181215032604 35 150 1.0 3.0 0.00 0.00 0.00 85 1021.8
20181215032104 35 150 2.0 3.0 0.00 0.00 0.00 85 1021.8
20181215031604 35 207 2.0 3.0 0.00 0.00 0.00 85 1021.8
20181215031104 35 207 1.0 3.0 0.00 0.00 0.00 85 1021.8
20181215030604 35 207 0.0 2.0 0.00 0.00 0.00 85 1022.0
20181215030105 35 207 0.0 2.0 0.00 0.00 0.00 85 1022.0
20181215025605 35 207 0.0 2.0 0.00 0.00 0.00 85 1022.2
20181215025104 35 207 1.0 2.0 0.00 0.00 0.00 84 1022.2
20181215024605 35 207 1.0 2.0 0.00 0.00 0.00 84 1022.2
20181215024105 35 207 0.0 2.0 0.00 0.00 0.00 84 1022.2
20181215023605 35 207 0.0 1.0 0.00 0.00 0.00 84 1022.2
20181215023104 35 207 0.0 3.0 0.00 0.00 0.00 84 1022.2
20181215022604 35 207 1.0 3.0 0.00 0.00 0.00 84 1022.2
20181215022104 35 207 1.0 3.0 0.00 0.00 0.00 84 1022.4
20181215021604 35 207 2.0 3.0 0.00 0.00 0.00 84 1022.4
20181215021104 35 207 0.0 2.0 0.00 0.00 0.00 84 1022.4
20181215020605 35 207 1.0 3.0 0.00 0.00 0.00 84 1022.4
20181215020105 35 207 2.0 3.0 0.00 0.00 0.00 84 1022.4
20181215015604 35 207 1.0 2.0 0.00 0.00 0.00 84 1022.4
20181215015105 35 207 0.0 0.0 0.00 0.00 0.00 84 1022.4
20181215014604 35 207 1.0 2.0 0.00 0.00 0.00 84 1022.4